Location: Alfortville
(48.8058°N, 2.4204°E)
Time: 18:07:53
(UTC+00:00)

CUTE 1.7 + AOD 2 - Visible Passes

Search period start: 28 March 2023 00:00
Search period end: 07 April 2023 00:00
Orbit: 584 x 602 km, 97.7° (Epoch: 27 March)

Date Brightness Start Highest point End Pass type
(mag) Time Alt. Az. Time Alt. Az. Time Alt. Az.
28 Mar ? 03:13:21 10° NNE 03:17:26 48° E 03:19:25 27° SSE visible
28 Mar ? 04:49:37 10° NNW 04:52:44 20° WNW 04:55:50 10° WSW visible
29 Mar ? 03:22:16 10° NNE 03:26:26 60° E 03:28:39 26° S visible
29 Mar ? 04:58:52 10° NNW 05:01:37 17° WNW 05:04:22 10° WSW visible
30 Mar ? 03:31:12 10° NNE 03:35:25 74° ESE 03:37:52 25° S visible
31 Mar ? 02:07:31 10° ENE 02:08:10 10° E 02:08:48 10° E visible
31 Mar ? 03:40:08 10° NNE 03:44:23 89° W 03:47:04 22° SSW visible
01 Apr ? 02:15:17 10° ENE 02:17:13 13° E 02:19:09 10° ESE visible
01 Apr ? 03:49:05 10° N 03:53:18 73° WNW 03:56:14 19° SSW visible
02 Apr ? 02:23:40 10° NE 02:26:15 16° E 02:28:48 10° SE visible
02 Apr ? 03:58:03 10° N 04:02:13 59° WNW 04:05:24 16° SSW visible
03 Apr ? 02:32:12 10° NE 02:35:15 19° E 02:37:58 11° SE visible
03 Apr ? 04:07:01 10° N 04:11:06 48° WNW 04:14:34 14° SW visible
04 Apr ? 02:40:50 10° NE 02:44:14 23° E 02:47:06 12° SE visible
04 Apr ? 04:16:01 10° N 04:19:57 39° WNW 04:23:42 11° SW visible
05 Apr ? 02:49:31 10° NE 02:53:12 28° E 02:56:13 13° SSE visible
05 Apr ? 04:25:01 10° N 04:28:47 33° WNW 04:32:34 10° SW visible
06 Apr ? 02:58:15 10° NNE 03:02:08 34° E 03:05:20 14° SSE visible
06 Apr ? 04:34:02 10° N 04:37:36 27° WNW 04:41:10 10° WSW visible
